Weather in Lijiang

China     23°34′15″N   102°01′11″E
temp.,
°C
wind,
m/s
gust,
m/s
humid.,
%
clouds,
%
prec.,
mm/h
press.,
hPa
HPBL,
m
29 november, mon
mon2923:00+12ssw22931 0.0 101924
02:00+12sse119284 0.1 101815
05:00+11s119214 0.1 101813
08:00+11sse119365 0.1 101918
11:00+19ene12645 0.1 1019617
14:00+22wsw354557 0.1 10141934
17:00+21sw145461 0.0 10121116
20:00+14ssw22735 0.0 101627
30 november, tue
tue3023:00+13s117558 0.0 101912
02:00+12s117934 0.0 101910
05:00+13e118494 0.0 101919
08:00+12e239372 0.3 1022119
11:00+11e238168 0.1 1026462
14:00+14e226354 0.1 1022946
17:00+14e126341 0.0 10201042
20:00+11sse227795 0.0 102225
1 december, wed
wed123:00+9sse218389 0.0 102318
02:00+10ese118095 0.0 102353
05:00+8se118943 0.0 102215
08:00+7sse119361 0.0 102312
11:00+14ne116448 0.0 1023601
14:00+18nne225472 0.0 10171018
17:00+18nne115920 0.0 1015428
20:00+12s228233 0.0 101827
2 december, thu
thu223:00+11s218642 0.0 101913
02:00+10sse219299 0.0 102015
05:00+10ese129099 0.0 102080
08:00+10ese138979 0.0 1022132
11:00+14ene227145 0.0 1023585
14:00+17ene225943 0.1 10181021
17:00+17e226473 0.1 1016568
20:00+13se228163 0.1 101953
3 december, fri
fri323:00+11sse229111 0.0 102130
02:00+10se119351 0.0 102124
05:00+10ese129093 0.0 102156
08:00+10ese138858 0.0 1022128
11:00+15ene226522 0.0 1022779
14:00+18ene225866 0.0 10181043
17:00+17e126799 0.0 1017502
20:00+14se237891 0.1 102068